DL7MAP-13 Weather Reports


Display with metric or nautical units.
time (UTC)temp
F
wind
direction
speed
MPH
gust
MPH
rain 1hr
in
rain 24hr
in
rain mn
in
humidity
%
barometer
mb
20260510024307 40 0.0 0.0 0.00 0.00 0.00 88 1011.2
20260510022807 40 0.0 0.0 0.00 0.00 0.00 88 1011.5
20260510021307 40 0.0 0.0 0.00 0.00 0.00 87 1011.6
20260510015807 40 0.0 0.0 0.00 0.00 0.00 87 1011.8
20260510014307 40 0.0 0.0 0.00 0.00 0.00 87 1011.4
20260510012807 40 0.0 0.0 0.00 0.00 0.00 87 1012.1
20260510011307 41 0.0 0.0 0.00 0.00 0.00 87 1012.2
20260510005807 41 0.0 0.0 0.00 0.00 0.00 87 1012.5
20260510004307 41 0.0 0.0 0.00 0.00 0.00 87 1012.6
20260510002807 41 0.0 0.0 0.00 0.00 0.00 86 1012.9
20260510001307 41 0.0 0.0 0.00 0.00 0.00 86 1013.2
20260509235807 42 0.0 0.0 0.00 0.00 0.00 86 1013.0
20260509234307 42 0.0 0.0 0.00 0.00 0.00 86 1013.3
20260509232807 43 0.0 0.0 0.00 0.00 0.00 86 1013.4
20260509231307 43 0.0 0.0 0.00 0.00 0.00 86 1013.6
20260509225807 43 0.0 0.0 0.00 0.00 0.00 85 1013.6
20260509224307 44 0.0 0.0 0.00 0.00 0.00 85 1013.5
20260509222807 44 0.0 0.0 0.00 0.00 0.00 85 1013.6
20260509221307 45 0.0 0.0 0.00 0.00 0.00 84 1013.8
20260509215807 45 0.0 0.0 0.00 0.00 0.00 84 1013.9
20260509214307 46 0.0 0.0 0.00 0.00 0.00 83 1013.5
20260509212807 46 0.0 0.0 0.00 0.00 0.00 83 1013.7
20260509211307 47 0.0 0.0 0.00 0.00 0.00 82 1013.8
20260509205807 47 0.0 0.0 0.00 0.00 0.00 81 1013.9
20260509204307 48 0.0 0.0 0.00 0.00 0.00 80 1014.0
20260509202807 49 0.0 0.0 0.00 0.00 0.00 79 1013.8
20260509201307 50 0.0 0.0 0.00 0.00 0.00 78 1013.8
20260509195807 51 0.0 0.0 0.00 0.00 0.00 77 1013.7
20260509194307 52 0.0 0.0 0.00 0.00 0.00 75 1013.6
20260509192807 53 0.0 0.0 0.00 0.00 0.00 73 1013.6
20260509191307 54 0.0 0.0 0.00 0.00 0.00 71 1013.6
20260509185807 56 0.0 0.0 0.00 0.00 0.00 69 1013.5
20260509184307 56 0.0 0.0 0.00 0.00 0.00 66 1013.4
20260509182807 57 0.0 0.0 0.00 0.00 0.00 64 1013.4
20260509181307 58 0.0 0.0 0.00 0.00 0.00 60 1013.6
20260509175807 60 0.0 0.0 0.00 0.00 0.00 57 1013.6
20260509172807 61 0.0 0.0 0.00 0.00 0.00 54 1014.1
20260509171307 61 0.0 0.0 0.00 0.00 0.00 53 1013.3
20260509165807 61 0.0 0.0 0.00 0.00 0.00 52 1013.0
20260509164307 62 0.0 0.0 0.00 0.00 0.00 52 1013.4
20260509162807 62 0.0 0.0 0.00 0.00 0.00 51 1013.2
20260509161307 62 0.0 0.0 0.00 0.00 0.00 51 1014.1
20260509155807 62 0.0 0.0 0.00 0.00 0.00 50 1013.4
20260509154307 63 0.0 0.0 0.00 0.00 0.00 48 1013.5
20260509152807 65 0.0 0.0 0.00 0.00 0.00 46 1013.7
20260509151307 67 0.0 0.0 0.00 0.00 0.00 45 1016.0
20260509145807 64 0.0 0.0 0.00 0.00 0.00 48 1014.5
20260509144308 63 0.0 0.0 0.00 0.00 0.00 48 1015.3
20260509142807 62 0.0 0.0 0.00 0.00 0.00 49 1015.2
20260509141307 62 0.0 0.0 0.00 0.00 0.00 49 1014.4
20260509135807 63 0.0 0.0 0.00 0.00 0.00 49 1014.6
20260509134307 63 0.0 0.0 0.00 0.00 0.00 48 1014.7
20260509132807 62 0.0 0.0 0.00 0.00 0.00 48 1016.0
20260509131307 62 0.0 0.0 0.00 0.00 0.00 48 1015.2
20260509125807 63 0.0 0.0 0.00 0.00 0.00 47 1014.5
20260509124307 64 0.0 0.0 0.00 0.00 0.00 46 1014.6
20260509122807 65 0.0 0.0 0.00 0.00 0.00 45 1015.1
20260509121307 66 0.0 0.0 0.00 0.00 0.00 44 1015.3
20260509115807 64 0.0 0.0 0.00 0.00 0.00 46 1016.9
20260509114307 63 0.0 0.0 0.00 0.00 0.00 48 1015.2
20260509112807 63 0.0 0.0 0.00 0.00 0.00 47 1015.3
20260509111307 64 0.0 0.0 0.00 0.00 0.00 47 1015.7
20260509105807 65 0.0 0.0 0.00 0.00 0.00 45 1015.4
20260509104307 66 0.0 0.0 0.00 0.00 0.00 45 1018.0
20260509102807 62 0.0 0.0 0.00 0.00 0.00 48 1016.1
20260509101307 64 0.0 0.0 0.00 0.00 0.00 47 1016.2
20260509095807 63 0.0 0.0 0.00 0.00 0.00 48 1015.9
20260509094307 64 0.0 0.0 0.00 0.00 0.00 49 1016.5
20260509092807 63 0.0 0.0 0.00 0.00 0.00 49 1016.6
20260509091307 62 0.0 0.0 0.00 0.00 0.00 51 1016.3
20260509085807 62 0.0 0.0 0.00 0.00 0.00 55 1017.1
20260509084307 60 0.0 0.0 0.00 0.00 0.00 58 1016.8
20260509082807 58 0.0 0.0 0.00 0.00 0.00 62 1016.3
20260509081307 56 0.0 0.0 0.00 0.00 0.00 67 1016.7
20260509075807 56 0.0 0.0 0.00 0.00 0.00 68 1016.7
20260509074307 54 0.0 0.0 0.00 0.00 0.00 70 1016.7
20260509072807 54 0.0 0.0 0.00 0.00 0.00 72 1016.6
20260509071307 53 0.0 0.0 0.00 0.00 0.00 72 1016.4
20260509065807 52 0.0 0.0 0.00 0.00 0.00 73 1016.5
20260509064307 52 0.0 0.0 0.00 0.00 0.00 73 1016.1
20260509062807 51 0.0 0.0 0.00 0.00 0.00 74 1016.6
20260509061307 51 0.0 0.0 0.00 0.00 0.00 75 1016.6
20260509055807 50 0.0 0.0 0.00 0.00 0.00 77 1016.0
20260509054307 49 0.0 0.0 0.00 0.00 0.00 79 1016.4
20260509052807 48 0.0 0.0 0.00 0.00 0.00 80 1016.2
20260509051307 48 0.0 0.0 0.00 0.00 0.00 80 1016.2
20260509045807 48 0.0 0.0 0.00 0.00 0.00 80 1015.9
20260509044307 47 0.0 0.0 0.00 0.00 0.00 79 1016.1
20260509042807 47 0.0 0.0 0.00 0.00 0.00 79 1015.9
20260509041307 47 0.0 0.0 0.00 0.00 0.00 80 1015.9
20260509035807 47 0.0 0.0 0.00 0.00 0.00 79 1016.0
20260509034307 47 0.0 0.0 0.00 0.00 0.00 79 1016.0
20260509032807 47 0.0 0.0 0.00 0.00 0.00 79 1015.8
20260509031307 47 0.0 0.0 0.00 0.00 0.00 79 1016.0
20260509025807 47 0.0 0.0 0.00 0.00 0.00 78 1016.0